{"data":{"norad_id":48396,"epoch":"2026-09-20T02:38:12.689376Z","epoch_age_seconds":67313,"freshness":"FRESH","line1":"1 48396U 21038AV  26263.10986909  .00001695  00000+0  66367-4 0  9997","line2":"2 48396  53.1602 147.7102 0001167  90.0433 270.0702 15.31702049298453","mean_motion":15.31702049,"eccentricity":0.0001167,"inclination_deg":53.1602,"raan_deg":147.7102,"arg_perigee_deg":90.0433,"mean_anomaly_deg":270.0702,"bstar":6.6367e-5,"rev_number":29845,"period_min":94.013062197059,"perigee_km":469.93462403753,"apogee_km":471.53315050262,"semimajor_km":6848.8708872701,"source":"CELESTRAK","updated_at":"2026-09-20T09:00:38.946308Z"}}